2015-10-25 00:06:15 r, 18.07m,0000000005Hz,0000088066c,0000000.191s, 019.6C,00002195
2015-10-25 00:16:12 r, 18.07m,0000000005Hz,0000088305c,0000000.192s, 019.3C,00002195
2015-10-25 00:26:13 r, 18.08m,0000000005Hz,0000089255c,0000000.194s, 019.3C,00002195
2015-10-25 00:36:15 r, 18.10m,0000000005Hz,0000090297c,0000000.196s, 019.3C,00002195
2015-10-25 00:46:12 r, 18.12m,0000000005Hz,0000091851c,0000000.199s, 019.3C,00002195
2015-10-25 00:56:13 r, 18.13m,0000000005Hz,0000093058c,0000000.202s, 019.0C,00002195
2015-10-25 01:06:14 r, 18.15m,0000000005Hz,0000094363c,0000000.205s, 019.0C,00002195
2015-10-25 01:16:12 r, 18.15m,0000000005Hz,0000095087c,0000000.206s, 018.6C,00002195
2015-10-25 01:26:12 r, 18.16m,0000000005Hz,0000095941c,0000000.208s, 018.6C,00002195
2015-10-25 01:36:12 r, 18.18m,0000000005Hz,0000096920c,0000000.210s, 018.6C,00002195
2015-10-25 01:46:12 r, 18.18m,0000000004Hz,0000097115c,0000000.211s, 018.3C,00002195
2015-10-25 01:56:12 r, 18.20m,0000000005Hz,0000099458c,0000000.216s, 018.3C,00002195
2015-10-25 02:06:14 r, 18.21m,0000000005Hz,0000100081c,0000000.217s, 018.3C,00002195
2015-10-25 02:16:12 r, 18.23m,0000000004Hz,0000101551c,0000000.220s, 018.3C,00002195
2015-10-25 02:26:12 r, 18.24m,0000000005Hz,0000102627c,0000000.223s, 018.3C,00002195
2015-10-25 02:36:15 r, 18.26m,0000000005Hz,0000104500c,0000000.227s, 018.0C,00002195
2015-10-25 02:46:13 r, 18.27m,0000000004Hz,0000105615c,0000000.229s, 018.0C,00002195
2015-10-25 02:56:12 r, 18.28m,0000000004Hz,0000107391c,0000000.233s, 018.0C,00002195
2015-10-25 03:06:13 r, 18.29m,0000000004Hz,0000108515c,0000000.235s, 018.0C,00002195
2015-10-25 03:16:12 r, 18.31m,0000000004Hz,0000110267c,0000000.239s, 017.7C,00002195
2015-10-25 03:26:15 r, 18.33m,0000000005Hz,0000111390c,0000000.242s, 017.7C,00002195
2015-10-25 03:36:12 r, 18.35m,0000000004Hz,0000113262c,0000000.246s, 017.7C,00002195
2015-10-25 03:46:13 r, 18.37m,0000000004Hz,0000114906c,0000000.249s, 017.7C,00002195
2015-10-25 03:56:12 r, 18.38m,0000000004Hz,0000116144c,0000000.252s, 017.4C,00002195
2015-10-25 04:06:12 r, 17.94m,0000000006Hz,0000078608c,0000000.171s, 017.4C,00002195
2015-10-25 04:16:15 r, 17.71m,0000000007Hz,0000063345c,0000000.137s, 017.4C,00002195
2015-10-25 04:26:12 r, 18.43m,0000000004Hz,0000122761c,0000000.266s, 017.4C,00002195
2015-10-25 04:36:15 r, 18.46m,0000000003Hz,0000125775c,0000000.273s, 017.4C,00002195
2015-10-25 04:46:13 r, 18.50m,0000000004Hz,0000129639c,0000000.281s, 017.4C,00002195
2015-10-25 04:56:12 r, 18.53m,0000000003Hz,0000134421c,0000000.292s, 017.4C,00002195
2015-10-25 05:06:15 r, 18.58m,0000000003Hz,0000140049c,0000000.304s, 017.0C,00002195
2015-10-25 05:16:13 r, 18.62m,0000000003Hz,0000145832c,0000000.316s, 017.0C,00002195
2015-10-25 05:26:12 r, 18.66m,0000000004Hz,0000150905c,0000000.327s, 017.0C,00002195
2015-10-25 05:36:14 r, 18.67m,0000000003Hz,0000152714c,0000000.331s, 017.0C,00002195
2015-10-25 05:46:13 r, 18.68m,0000000003Hz,0000153990c,0000000.334s, 017.0C,00002195
2015-10-25 05:56:12 r, 18.68m,0000000003Hz,0000154523c,0000000.335s, 016.7C,00002195
2015-10-25 06:06:13 r, 18.67m,0000000003Hz,0000153439c,0000000.333s, 016.7C,00002195
2015-10-25 06:16:15 r, 18.67m,0000000003Hz,0000152715c,0000000.331s, 016.7C,00002195
2015-10-25 06:26:12 r, 18.66m,0000000003Hz,0000151424c,0000000.329s, 016.7C,00002195
2015-10-25 06:36:14 r, 18.64m,0000000003Hz,0000148625c,0000000.323s, 016.7C,00002195
2015-10-25 06:46:13 r, 18.58m,0000000004Hz,0000140185c,0000000.304s, 016.7C,00002195
2015-10-25 06:56:12 r, 18.35m,0000000004Hz,0000113210c,0000000.246s, 016.7C,00002195
2015-10-25 07:06:12 r, 17.66m,0000000007Hz,0000060638c,0000000.132s, 016.7C,00002195
2015-10-25 07:16:13 r, 16.45m,0000000023Hz,0000019962c,0000000.043s, 016.7C,00002195
2015-10-25 07:26:12 r, 14.67m,0000000119Hz,0000003832c,0000000.008s, 016.4C,00002195
2015-10-25 07:36:15 r, 12.51m,0000000881Hz,0000000000c,0000000.000s, 016.4C,00002195
2015-10-25 07:46:13 r, 10.42m,0000006040Hz,0000000000c,0000000.000s, 016.4C,00002195
2015-10-25 07:56:12 r, 08.74m,0000028515Hz,0000000000c,0000000.000s, 016.4C,00002195
2015-10-25 08:06:14 r, 07.56m,0000084247Hz,0000000000c,0000000.000s, 016.4C,00002195
2015-10-25 08:16:13 r, 06.77m,0000174884Hz,0000000000c,0000000.000s, 016.4C,00002195
2015-10-25 08:26:15 r, 06.22m,0000290528Hz,0000000000c,0000000.000s, 016.7C,00002195
2015-10-25 08:36:13 r, 00.00m,0000446988Hz,0000000000c,0000000.000s, 016.7C,00002195
2015-10-25 08:46:12 r, 00.00m,0000563106Hz,0000000000c,0000000.000s, 017.0C,00002195
2015-10-25 08:56:14 r, 00.00m,0000563197Hz,0000000000c,0000000.000s, 017.4C,00002195
2015-10-25 09:06:13 r, 00.00m,0000563204Hz,0000000000c,0000000.000s, 017.4C,00002195
2015-10-25 09:16:13 r, 00.00m,0000563173Hz,0000000000c,0000000.000s, 017.7C,00002195
2015-10-25 09:26:12 r, 00.00m,0000563215Hz,0000000000c,0000000.000s, 018.3C,00002195
2015-10-25 09:36:15 r, 00.00m,0000563487Hz,0000000000c,0000000.000s, 019.6C,00002195
2015-10-25 09:46:13 r, 00.00m,0000563493Hz,0000000000c,0000000.000s, 019.9C,00002195
2015-10-25 09:56:12 r, 00.00m,0000563485Hz,0000000000c,0000000.000s, 020.3C,00002195
2015-10-25 10:06:14 r, 00.00m,0000563617Hz,0000000000c,0000000.000s, 021.5C,00002195
2015-10-25 10:16:12 r, 00.00m,0000563896Hz,0000000000c,0000000.000s, 022.8C,00002195
2015-10-25 10:26:12 r, 00.00m,0000564033Hz,0000000000c,0000000.000s, 024.1C,00002195
2015-10-25 10:36:12 r, 00.00m,0000564080Hz,0000000000c,0000000.000s, 024.8C,00002195
2015-10-25 10:46:13 r, 00.00m,0000564232Hz,0000000000c,0000000.000s, 025.4C,00002195
2015-10-25 10:56:12 r, 00.00m,0000564305Hz,0000000000c,0000000.000s, 026.1C,00002195
2015-10-25 11:06:12 r, 00.00m,0000564288Hz,0000000000c,0000000.000s, 026.4C,00002195
2015-10-25 11:16:13 r, 00.00m,0000564347Hz,0000000000c,0000000.000s, 026.7C,00002195
2015-10-25 11:26:12 r, 00.00m,0000564370Hz,0000000000c,0000000.000s, 027.3C,00002195
2015-10-25 11:36:15 r, 00.00m,0000564479Hz,0000000000c,0000000.000s, 028.0C,00002195
2015-10-25 11:46:13 r, 00.00m,0000564502Hz,0000000000c,0000000.000s, 028.3C,00002195
2015-10-25 11:56:12 r, 00.00m,0000564662Hz,0000000000c,0000000.000s, 029.6C,00002195
2015-10-25 12:06:13 r, 00.00m,0000564745Hz,0000000000c,0000000.000s, 030.6C,00002195
2015-10-25 12:16:12 r, 00.00m,0000564806Hz,0000000000c,0000000.000s, 030.6C,00002195
2015-10-25 12:26:12 r, 00.00m,0000564816Hz,0000000000c,0000000.000s, 031.2C,00002195
2015-10-25 12:36:12 r, 00.00m,0000564876Hz,0000000000c,0000000.000s, 031.5C,00002195
2015-10-25 12:46:12 r, 00.00m,0000564823Hz,0000000000c,0000000.000s, 031.5C,00002195
2015-10-25 12:56:12 r, 00.00m,0000564820Hz,0000000000c,0000000.000s, 031.5C,00002195
2015-10-25 13:06:13 r, 00.00m,0000564718Hz,0000000000c,0000000.000s, 030.9C,00002195
2015-10-25 13:16:15 r, 00.00m,0000564727Hz,0000000000c,0000000.000s, 030.6C,00002195
2015-10-25 13:26:12 r, 00.00m,0000564680Hz,0000000000c,0000000.000s, 030.2C,00002195
2015-10-25 13:36:12 r, 00.00m,0000564636Hz,0000000000c,0000000.000s, 029.9C,00002195
2015-10-25 13:46:14 r, 00.00m,0000564781Hz,0000000000c,0000000.000s, 030.6C,00002195
2015-10-25 13:56:12 r, 00.00m,0000564756Hz,0000000000c,0000000.000s, 030.2C,00002195
2015-10-25 14:06:15 r, 00.00m,0000564737Hz,0000000000c,0000000.000s, 030.9C,00002195
2015-10-25 14:16:13 r, 00.00m,0000564763Hz,0000000000c,0000000.000s, 031.2C,00002195
2015-10-25 14:26:13 r, 00.00m,0000564811Hz,0000000000c,0000000.000s, 031.2C,00002195
2015-10-25 14:36:14 r, 00.00m,0000564793Hz,0000000000c,0000000.000s, 031.5C,00002195
2015-10-25 14:46:13 r, 00.00m,0000564714Hz,0000000000c,0000000.000s, 031.2C,00002195
2015-10-25 14:56:12 r, 00.00m,0000564762Hz,0000000000c,0000000.000s, 031.2C,00002195
2015-10-25 15:06:13 r, 00.00m,0000564801Hz,0000000000c,0000000.000s, 031.2C,00002195
2015-10-25 15:16:15 r, 00.00m,0000564720Hz,0000000000c,0000000.000s, 031.2C,00002195
2015-10-25 15:26:12 r, 00.00m,0000564742Hz,0000000000c,0000000.000s, 031.2C,00002195
2015-10-25 15:36:13 r, 00.00m,0000564670Hz,0000000000c,0000000.000s, 031.2C,00002195
2015-10-25 15:46:15 r, 00.00m,0000564704Hz,0000000000c,0000000.000s, 030.9C,00002195
2015-10-25 15:56:12 r, 00.00m,0000564562Hz,0000000000c,0000000.000s, 030.6C,00002195
2015-10-25 16:06:13 r, 00.00m,0000564436Hz,0000000000c,0000000.000s, 029.0C,00002195
2015-10-25 16:16:14 r, 00.00m,0000564352Hz,0000000000c,0000000.000s, 027.7C,00002195
2015-10-25 16:26:12 r, 00.00m,0000564264Hz,0000000000c,0000000.000s, 027.3C,00002195
2015-10-25 16:36:15 r, 00.00m,0000564310Hz,0000000000c,0000000.000s, 027.0C,00002195
2015-10-25 16:46:13 r, 00.00m,0000564157Hz,0000000000c,0000000.000s, 026.1C,00002195
2015-10-25 16:56:12 r, 00.00m,0000564148Hz,0000000000c,0000000.000s, 025.7C,00002195
2015-10-25 17:06:14 r, 00.00m,0000564060Hz,0000000000c,0000000.000s, 025.4C,00002195
2015-10-25 17:16:12 r, 00.00m,0000564067Hz,0000000000c,0000000.000s, 025.1C,00002195
2015-10-25 17:26:12 r, 00.00m,0000564088Hz,0000000000c,0000000.000s, 024.8C,00002195
2015-10-25 17:36:13 r, 00.00m,0000564011Hz,0000000000c,0000000.000s, 024.4C,00002195
2015-10-25 17:46:13 r, 00.00m,0000524980Hz,0000000000c,0000000.000s, 024.4C,00002195
2015-10-25 17:56:12 r, 00.00m,0000409741Hz,0000000000c,0000000.000s, 024.1C,00002195
2015-10-25 18:06:15 r, 06.55m,0000214913Hz,0000000000c,0000000.000s, 024.1C,00002195
2015-10-25 18:16:13 r, 07.25m,0000111873Hz,0000000000c,0000000.000s, 023.8C,00002195
2015-10-25 18:26:12 r, 08.25m,0000044648Hz,0000000000c,0000000.000s, 023.5C,00002195
2015-10-25 18:36:12 r, 09.88m,0000010045Hz,0000000000c,0000000.000s, 023.2C,00002195
2015-10-25 18:46:13 r, 11.96m,0000001456Hz,0000000000c,0000000.000s, 023.5C,00002195
2015-10-25 18:56:12 r, 13.93m,0000000239Hz,0000000000c,0000000.000s, 023.2C,00002195
2015-10-25 19:06:13 r, 15.35m,0000000065Hz,0000007137c,0000000.015s, 023.2C,00002195
2015-10-25 19:16:12 r, 15.70m,0000000046Hz,0000009981c,0000000.022s, 023.2C,00002195
2015-10-25 19:26:12 r, 15.99m,0000000036Hz,0000012985c,0000000.028s, 023.2C,00002195
2015-10-25 19:36:12 r, 17.53m,0000000009Hz,0000053551c,0000000.116s, 023.2C,00002195
2015-10-25 19:46:12 r, 17.02m,0000000014Hz,0000033665c,0000000.073s, 022.8C,00002195
2015-10-25 19:56:13 r, 16.41m,0000000024Hz,0000019106c,0000000.041s, 022.5C,00002195
2015-10-25 20:06:12 r, 16.79m,0000000016Hz,0000027208c,0000000.059s, 022.5C,00002195
2015-10-25 20:16:15 r, 16.90m,0000000015Hz,0000030047c,0000000.065s, 022.5C,00002195
2015-10-25 20:26:13 r, 17.56m,0000000008Hz,0000054619c,0000000.119s, 022.2C,00002195
2015-10-25 20:36:12 r, 16.02m,0000000034Hz,0000013326c,0000000.029s, 022.2C,00002195
2015-10-25 20:46:13 r, 16.52m,0000000022Hz,0000021094c,0000000.046s, 022.2C,00002195
2015-10-25 20:56:15 r, 15.48m,0000000057Hz,0000008084c,0000000.018s, 022.2C,00002195
2015-10-25 21:06:12 r, 15.43m,0000000060Hz,0000007721c,0000000.017s, 022.5C,00002195
2015-10-25 21:16:14 r, 15.76m,0000000044Hz,0000010533c,0000000.023s, 022.5C,00002195
2015-10-25 21:26:12 r, 16.11m,0000000032Hz,0000014402c,0000000.031s, 022.5C,00002195
2015-10-25 21:36:13 r, 16.08m,0000000033Hz,0000014112c,0000000.031s, 022.5C,00002195
2015-10-25 21:46:15 r, 15.58m,0000000052Hz,0000008906c,0000000.019s, 022.5C,00002195
2015-10-25 21:56:13 r, 16.81m,0000000016Hz,0000027762c,0000000.060s, 022.5C,00002195
2015-10-25 22:06:12 r, 16.57m,0000000020Hz,0000022257c,0000000.048s, 022.2C,00002195
2015-10-25 22:16:12 r, 16.61m,0000000020Hz,0000023030c,0000000.050s, 022.2C,00002195
2015-10-25 22:26:13 r, 17.08m,0000000013Hz,0000035577c,0000000.077s, 022.2C,00002195
2015-10-25 22:36:12 r, 16.91m,0000000016Hz,0000030316c,0000000.066s, 021.9C,00002195
2015-10-25 22:46:13 r, 17.05m,0000000014Hz,0000034542c,0000000.075s, 021.9C,00002195
2015-10-25 22:56:13 r, 17.38m,0000000010Hz,0000046110c,0000000.100s, 021.5C,00002195
2015-10-25 23:06:12 r, 17.50m,0000000008Hz,0000051780c,0000000.112s, 021.2C,00002195
2015-10-25 23:16:13 r, 17.49m,0000000009Hz,0000051237c,0000000.111s, 021.2C,00002195
2015-10-25 23:26:15 r, 17.47m,0000000009Hz,0000050901c,0000000.110s, 020.9C,00002195
2015-10-25 23:36:12 r, 17.49m,0000000009Hz,0000051707c,0000000.112s, 020.9C,00002195
2015-10-25 23:46:13 r, 17.44m,0000000010Hz,0000049092c,0000000.107s, 020.9C,00002195
2015-10-25 23:56:15 r, 17.47m,0000000009Hz,0000050815c,0000000.110s, 020.6C,00002195
